Location: Newark
(45.5000°N, 11.4167°E)
Time: 02:11:41
(UTC+00:00)

Altair - Pass Details

Date: 02 September 2019
Orbit: 1501 x 1683 km, 47.2° (Epoch: 16 October)

Event Time Altitude Azimuth Distance (km) Brightness Sun altitude
Exits shadow 00:52:37 61° 246° (WSW) 1,816 7.5 -32.1°
Maximum altitude 00:54:50 87° 162° (SSE) 1,627 7.4 -31.9°
Drops below altitude 10° 01:04:30 10° 75° (ENE) 3,776 10.1 -31.0°
Sets 01:07:31 0° 75° (ENE) 4,738 10.7 -30.7°
